Regional Weather Roundup
Issued by NWS

Home | Current Version | Previous Version | Text Only | Print | Product List | Glossary Off
Versions: 1 2 3 4 5 6 7 8 9 10 11 12 13 14 15 16 17 18 19 20 21 22 23 24 25 26 27 28 29 30 31 32 33 34 35 36 37 38 39 40 41 42 43 44 45 46 47 48 49 50

000
ASUS43 KDMX 281007
RWRIA

WEATHER ROUNDUP FOR IOWA
NATIONAL WEATHER SERVICE DES MOINES IA
400 AM CST SUN DEC 28 2014

NOTE: "FAIR" INDICATES FEW OR NO CLOUDS BELOW 12,000 FEET WITH NO
SIGNIFICANT WEATHER AND/OR OBSTRUCTIONS TO VISIBILITY.

* - THESE STATIONS ARE NOT NWS STATIONS...THUS NOT UNDER NWS
QUALITY CONTROL.  THEY ALSO DO NOT REPORT WEATHER SUCH
AS PRECIPITATION OR FOG.

IAZ001>003-012>014-020>022-031>034-043>046-281100-
   NORTHWEST IOWA

CITY           SKY/WX    TMP DP  RH WIND       PRES   REMARKS
CARROLL *      CLEAR     14  10  85 CALM      30.13F
CHEROKEE *     CLEAR      3   1  92 CALM      30.11F
DENISON *      CLEAR     12  12 100 CALM      30.11F
LE MARS *      CLEAR      5   3  92 CALM      30.12S
ORANGE CITY *  CLEAR     10   7  85 CALM      30.09S
SHELDON *      CLEAR      7   5  92 W5        30.08F WCI  -2
SIOUX CITY     CLEAR      6   3  87 E7        30.13F WCI  -6
SPENCER        CLEAR      6   3  87 SW6       30.10F WCI  -4
STORM LAKE *   CLEAR     12   9  85 SW12      30.09F WCI  -2
$$

IAZ055>058-069>071-079>083-090>094-281100-
   SOUTHWEST IOWA

CITY           SKY/WX    TMP DP  RH WIND       PRES   REMARKS
ATLANTIC *     CLEAR     14  12  92 SW6       30.16F WCI   5
AUDUBON *      CLEAR     12   7  79 CALM      30.14S
CLARINDA *     CLEAR     16  16 100 S5        30.21F WCI   9
COUNCIL BLFS * CLEAR     19  18  93 SW7       30.14F WCI  10
CRESTON *      CLEAR     16  14  93 SW6       30.17F WCI   7
HARLAN  *      CLEAR     12  12 100 CALM      30.18F
LAMONI         CLEAR     16  13  88 SW6       30.20S WCI   7
RED OAK *      CLEAR     14  14 100 CALM      30.19F
SHENANDOAH *   CLEAR     18  14  86 SW3       30.20F
$$

IAZ047>049-059>061-072>074-084-281100-
   CENTRAL IOWA

CITY           SKY/WX    TMP DP  RH WIND       PRES   REMARKS
AMES           CLEAR     15  11  83 S5        30.17F WCI   8
ANKENY *       CLEAR     16  12  86 S3        30.18F
CHARITON *     CLEAR     16  14  93 SW5       30.19F WCI   9
DES MOINES     CLEAR     17  13  84 S7        30.19F WCI   8
GRINNELL*      CLEAR     16  14  93 SW7       30.18F WCI   6
KNOXVILLE *    CLEAR     16  12  86 SW6       30.18F WCI   7
MARSHALLTOWN   CLEAR     13  10  88 SW6       30.16F WCI   4
PELLA *        CLEAR     18  16  93 SW3       30.21F
PERRY *          N/A     14  12  92 S3        30.17S
$$

IAZ004>006-015-016-023>025-035-036-281100-
   NORTH CENTRAL IOWA

CITY           SKY/WX    TMP DP  RH WIND       PRES   REMARKS
ALGONA *       CLEAR      7   5  92 S9        30.12F WCI  -7
CLARION *      CLEAR      7   5  92 S6        30.14S WCI  -3
ESTHERVILLE    CLEAR      9   7  92 SW6       30.09F WCI  -1
FORT DODGE *   CLEAR      9   3  78 S3        30.14S
MASON CITY     CLEAR      4   1  88 CALM      30.13F
FOREST CITY *  CLEAR     10   5  79 CALM      30.11F
IOWA FALLS *     N/A     14  12  92 SW3       30.16R
$$

IAZ007>011-017>019-026>030-037>042-050>054-066-281100-
   NORTHEAST IOWA

CITY           SKY/WX    TMP DP  RH WIND       PRES   REMARKS
CEDAR RAPIDS     N/A     14  12  92 W6        30.17F WCI   5
CHARLES CITY * PTCLDY    10   9  92 CALM      30.14S
CLINTON *      CLEAR     18  12  79 W8        30.20S WCI   7
DECORAH *      CLEAR     12  10  92 W5        30.12S WCI   4
DUBUQUE        CLEAR     15  12  88 W8        30.14S WCI   4
MONTICELLO *   CLEAR     18  16  93 W6        30.17F WCI   9
OELWEIN *      CLEAR     14  12  92 SW3       30.16S
WATERLOO       CLEAR     13  10  88 SW5       30.16S WCI   5
$$

IAZ064-065-067-068-078-281100-
   EAST CENTRAL IOWA

CITY           SKY/WX    TMP DP  RH WIND       PRES   REMARKS
DAVENPORT      CLEAR     18  14  84 W8        30.19S WCI   8
IOWA CITY      CLEAR     17  14  88 W5        30.21F WCI  10
MT. PLEASANT * CLEAR     21  18  86 W3        30.20F
MUSCATINE *    CLEAR     21  18  86 W8        30.22S WCI  12
QUAD CITIES    CLEAR     20  16  84 W8        30.20S WCI  10
$$

IAZ062-063-075>077-085>089-095>099-281100-
   SOUTHEAST IOWA

CITY           SKY/WX    TMP DP  RH WIND       PRES   REMARKS
BURLINGTON     CLOUDY    26  20  77 W6        30.21R WCI  19
FAIRFIELD *    CLEAR     21  18  86 W5        30.21S WCI  15
FORT MADISON * CLOUDY    27  21  80 W9        30.22S WCI  17
KEOKUK *       CLOUDY    27  21  80 NW5       30.22S WCI  21
OSKALOOSA *      N/A     18  16  93 W7        30.21S WCI   8
CENTERVILLE *  CLEAR     18  18 100 W6        30.21S WCI   9
OTTUMWA        CLEAR     18  15  88 W3        30.20F
WASHINGTON *   CLEAR     19  19 100 W6        30.21S WCI  11
$$

ABBREVIATIONS USED IN REMARKS
   TC - TEMPERATURES IN CELSIUS
  WCI - WIND CHILL INDEX
   HX - HEAT INDEX
  VSB - VISIBILITY
$$




USA.gov is the U.S. government's official web portal to all federal, state and local government web resources and services.